This is the latest recevied weather packets stored in our database for station/object K1RFS. If no packets are shown the sender has not sent any weather packets the latest 10 day(s).
| Time | Temp. | Humidity | Pressure | Rain* | Wind** | Luminosity | Snow |
|---|---|---|---|---|---|---|---|
| 1787773248 | 34.44° C | 23% | 1007.6 hPa | 0 mm | - | 658 W/m² | - |
| 1787772943 | 32.78° C | 23% | 1007.8 hPa | 0 mm | - | 641 W/m² | - |
| 1787772639 | 33.33° C | 25% | 1007.7 hPa | 0 mm | - | 202 W/m² | - |
| 1787772337 | 31.67° C | 26% | 1007.9 hPa | 0 mm | - | 659 W/m² | - |
| 1787772036 | 31.67° C | 26% | 1007.9 hPa | 0 mm | - | 154 W/m² | - |
| 1787771731 | 31.67° C | 26% | 1008.1 hPa | 0 mm | - | 150 W/m² | - |
| 1787771430 | 32.22° C | 25% | 1008.1 hPa | 0 mm | - | 162 W/m² | - |
| 1787771130 | 32.78° C | 23% | 1008.1 hPa | 0 mm | - | 187 W/m² | - |
| 1787770826 | 32.78° C | 24% | 1008.5 hPa | 0 mm | - | 205 W/m² | - |
| 1787770524 | 33.89° C | 24% | 1008.5 hPa | 0 mm | - | 162 W/m² | - |
| 1787770224 | 33.33° C | 23% | 1008.6 hPa | 0 mm | - | 645 W/m² | - |
| 1787769922 | 32.78° C | 25% | 1008.7 hPa | 0 mm | - | 669 W/m² | - |
| 1787769618 | 32.22° C | 25% | 1008.7 hPa | 0 mm | - | 669 W/m² | - |
| 1787769315 | 32.78° C | 26% | 1008.8 hPa | 0 mm | - | 665 W/m² | - |
| 1787769016 | 31.67° C | 26% | 1008.8 hPa | 0 mm | - | 475 W/m² | - |
| 1787768712 | 30.56° C | 26% | 1008.9 hPa | 0 mm | - | 687 W/m² | - |
| 1787768408 | 31.11° C | 27% | 1009 hPa | 0 mm | - | 550 W/m² | - |
| 1787768104 | 30.56° C | 28% | 1009.2 hPa | 0 mm | - | 580 W/m² | - |
| 1787767804 | 30.56° C | 28% | 1008.9 hPa | 0 mm | - | 199 W/m² | - |
| 1787767500 | 30.56° C | 29% | 1009 hPa | 0 mm | - | 494 W/m² | - |
| 1787767197 | 31.11° C | 27% | 1009 hPa | 0 mm | - | 227 W/m² | - |
| 1787766896 | 30.56° C | 29% | 1009.2 hPa | 0 mm | - | 541 W/m² | - |
| 1787766591 | 30.56° C | 27% | 1009.3 hPa | 0 mm | - | 79 W/m² | - |
| 1787766290 | 30° C | 29% | 1009.2 hPa | 0 mm | - | 75 W/m² | - |
| 1787765985 | 30.56° C | 27% | 1009 hPa | 0 mm | - | 57 W/m² | - |
* Rain latest hour (hover to see other rain measurements)
** Current wind speed in m/s (hover to see current wind gust speed)